GFSCGP_700_rhum_267.txt.gz
RH
6 5 6 9 18 17 16 18 17 16 19 18 21 23 27 34 37 41 30 27 28 28 29 24 20 20 21 24 31 50 93 71 98 99 67 72 95 81 82 72 81 90 99 100
6 3 5 9 18 19 18 17 15 16 20 22 38 38 46 47 47 47 42 34 32 30 23 18 15 13 14 18 21 36 74 87 86 98 76 95 92 75 58 34 21 40 73 71
6 5 4 8 16 21 22 22 29 26 27 32 32 62 66 66 63 55 45 36 28 26 20 14 15 15 15 15 15 16 15 16 22 26 23 22 15 14 15 14 14 12 13 15
12 6 12 7 15 21 24 22 21 24 27 60 37 65 71 67 69 61 41 32 23 28 20 19 19 23 22 21 21 19 18 18 18 18 17 18 16 14 12 14 13 13 13 13
11 11 12 11 6 19 18 18 20 20 34 47 53 47 60 66 64 52 47 28 32 40 27 20 22 22 18 16 13 10 8 7 6 5 5 4 3 2 2 2 2 2 2 3
27 23 15 12 11 13 15 17 21 33 43 61 46 46 54 56 32 51 41 36 37 41 19 13 18 18 12 9 5 2 2 2 2 2 2 1 1 1 1 1 1 1 1 1
27 28 22 24 22 18 21 21 49 52 58 55 40 53 27 30 39 25 23 30 37 40 34 9 8 7 5 3 2 2 2 2 2 2 2 2 2 2 1 1 1 1 1 1
30 27 26 24 24 21 23 22 39 63 53 41 41 46 36 30 29 34 38 42 43 44 43 31 5 4 3 3 3 3 3 3 2 2 2 2 2 2 2 2 2 2 2 2
28 26 22 24 24 26 37 28 26 30 34 34 40 47 40 35 37 38 37 41 41 46 45 43 8 5 4 4 4 4 4 3 3 3 3 3 2 2 2 2 2 2 2 2
31 27 23 25 25 28 36 31 34 30 46 49 44 47 35 38 38 35 37 38 45 53 48 43 13 6 6 5 4 4 4 4 4 3 3 3 2 2 2 2 2 2 2 2
33 32 28 26 26 26 29 32 30 29 27 57 53 35 32 31 24 22 28 36 45 52 49 45 9 6 6 6 6 5 4 4 4 4 3 3 3 2 2 2 2 2 2 2
29 33 29 25 27 26 27 28 27 26 37 34 30 26 23 23 24 25 22 32 47 55 52 38 8 5 6 8 8 7 6 5 5 4 4 4 3 3 2 2 2 2 2 2
26 28 32 30 28 27 26 25 27 25 24 31 45 33 27 32 35 30 28 35 44 50 48 36 13 6 8 11 11 9 7 6 6 5 4 4 3 3 2 2 2 2 2 2
30 27 31 34 28 25 28 24 26 30 31 30 36 30 30 29 32 34 41 47 45 46 45 28 25 10 12 13 12 10 8 7 7 6 5 4 4 3 3 3 2 2 2 2
33 33 33 30 29 27 23 20 25 29 28 28 25 32 29 24 23 25 41 51 51 50 43 32 30 16 14 14 14 10 8 8 7 6 6 5 4 3 3 3 2 2 2 2
35 34 34 32 32 32 30 24 24 23 28 32 31 26 27 28 34 41 43 50 50 46 40 37 33 22 16 20 17 11 9 8 8 7 6 5 4 3 3 3 3 2 2 2
40 36 36 35 34 35 36 30 27 21 24 29 36 29 26 29 29 28 34 46 44 41 39 41 32 26 24 29 19 12 9 9 8 7 6 5 3 3 3 3 3 3 3 2
49 39 37 36 41 54 33 33 28 25 14 18 28 31 26 25 20 28 37 36 40 40 45 42 32 29 34 28 20 13 10 9 8 7 7 5 3 3 3 3 3 3 3 3
53 44 42 42 43 37 36 34 32 29 23 16 21 32 30 26 30 31 40 40 39 35 39 34 35 37 37 29 22 14 11 10 9 8 7 5 4 4 3 3 4 4 3 3
55 49 42 45 46 62 37 35 33 28 28 16 14 21 28 27 36 33 36 47 49 52 37 32 36 39 36 32 27 15 11 10 9 8 7 5 4 4 4 4 4 4 4 3
56 50 47 44 45 40 39 33 28 32 20 13 20 24 30 25 18 23 39 42 49 40 29 38 43 41 45 35 25 14 12 11 10 9 7 5 4 4 4 4 5 4 4 3
54 57 54 56 51 49 35 32 24 14 10 13 14 18 22 28 29 26 30 36 34 28 38 41 42 37 40 35 21 14 12 11 10 9 7 6 5 5 5 5 5 5 4 3
61 53 49 49 48 33 25 22 13 8 8 9 12 13 21 26 23 20 23 22 25 29 33 38 40 43 40 30 17 15 12 11 10 8 7 6 6 6 6 6 6 5 4 3
64 58 53 48 43 36 25 10 14 11 10 13 15 12 15 13 15 18 24 26 29 31 32 35 36 33 32 23 17 14 12 12 10 8 7 7 7 7 7 6 6 5 4 4
80 62 58 54 46 36 27 16 13 11 17 19 18 13 18 19 17 20 26 31 30 27 30 32 28 29 24 20 17 14 13 12 10 8 8 8 8 8 7 7 6 5 4 4
90 84 57 48 42 37 27 19 15 13 14 21 21 13 16 22 21 24 32 30 27 25 28 26 25 24 21 19 17 15 13 12 10 9 8 9 10 9 8 7 6 5 4 4

GFSCGP_700_rhum_270.txt.gz
RH
14 9 6 11 17 18 20 19 17 19 19 18 18 17 18 19 23 25 31 33 27 24 23 24 25 26 23 22 24 30 49 96 63 99 87 85 84 96 81 81 75 82 63 44
15 12 6 6 18 18 19 22 19 19 20 20 21 24 28 32 36 43 46 41 34 31 31 31 28 21 18 17 18 22 35 64 77 65 88 94 87 81 84 80 60 16 12 11
10 13 10 6 9 19 18 24 20 20 23 28 24 43 44 47 53 50 53 52 47 42 37 30 21 18 17 16 17 16 17 20 36 49 60 63 49 22 22 10 12 12 11 10
12 10 12 6 6 12 20 20 24 21 21 36 38 60 47 49 52 58 56 53 46 39 33 24 19 17 18 20 22 20 17 15 14 15 14 14 13 11 9 8 6 6 5 3
13 8 8 10 4 7 19 20 21 23 28 31 52 44 40 52 60 51 52 50 45 40 33 21 16 18 22 20 18 16 14 13 12 11 10 8 6 4 2 2 1 1 1 1
22 21 20 7 6 5 19 23 34 44 56 67 29 43 43 34 19 32 48 42 40 38 40 21 18 23 22 17 14 8 4 2 2 2 2 2 1 1 1 1 1 1 2 2
29 24 20 23 13 14 22 29 82 68 70 63 38 52 29 22 22 21 22 33 36 40 30 14 14 18 15 10 5 3 2 2 2 2 2 2 2 2 2 2 2 2 2 2
28 28 26 24 23 17 21 24 59 49 59 55 42 60 43 24 20 29 37 40 34 41 43 40 16 8 6 4 3 2 2 2 2 2 2 2 2 2 2 2 2 2 2 2
33 29 25 24 24 24 23 32 16 30 38 38 34 36 42 33 26 29 34 38 42 42 46 45 39 11 4 3 3 3 3 3 3 3 2 2 2 2 2 2 2 2 2 2
33 31 26 25 26 27 26 22 33 36 49 52 38 38 34 33 29 26 26 28 36 46 46 44 46 21 5 4 4 3 3 3 3 3 3 3 3 3 2 2 2 2 2 2
31 34 30 29 27 26 35 37 33 29 31 35 37 31 27 27 23 23 22 22 31 40 42 44 48 26 6 5 4 4 4 4 4 4 4 4 3 3 3 2 2 3 3 3
32 32 35 29 29 29 34 38 35 35 36 35 31 27 19 24 21 23 21 18 31 40 41 45 49 28 8 6 5 5 4 5 5 4 4 4 4 4 3 3 3 3 3 3
30 33 34 33 31 28 30 30 37 32 32 31 41 30 21 19 27 27 25 22 28 35 43 51 49 35 9 7 7 6 6 6 5 5 5 5 4 4 3 3 3 3 3 3
39 31 29 35 30 28 30 29 29 34 34 32 32 31 26 21 17 16 22 28 31 37 42 45 49 31 16 9 8 8 7 6 6 6 6 6 5 4 4 3 3 3 3 3
39 40 32 30 29 30 27 23 26 27 28 32 30 29 27 25 22 17 12 23 42 44 43 46 48 32 27 12 12 10 8 7 7 7 6 6 5 4 4 3 3 3 3 3
55 48 38 34 32 31 31 29 26 22 24 25 27 27 28 26 29 24 18 21 32 39 45 48 49 36 30 17 14 10 10 8 7 7 7 7 6 5 4 3 3 4 4 4
76 58 47 39 35 34 38 30 29 29 27 22 23 25 28 27 24 25 23 22 27 32 40 47 49 39 30 22 14 12 11 9 8 8 8 7 6 5 4 4 4 4 4 4
89 81 75 50 41 58 33 31 28 28 26 24 25 23 17 20 23 22 23 24 22 35 44 49 46 43 30 22 17 14 13 10 9 9 9 8 7 5 4 4 4 4 4 4
85 90 88 55 46 40 37 34 30 30 25 23 23 25 22 26 32 30 27 27 29 34 44 48 45 39 33 24 19 19 16 12 11 10 9 8 7 5 4 4 4 5 5 5
58 70 86 61 51 64 39 38 34 33 34 22 21 20 22 23 36 32 28 24 34 52 50 45 49 41 34 28 27 25 18 14 12 11 10 9 7 5 5 5 5 5 5 5
52 75 89 77 56 42 40 37 36 37 22 16 15 19 22 22 18 25 27 23 28 41 48 52 46 37 37 37 32 25 24 17 13 11 10 9 7 6 5 5 6 6 5 5
77 71 78 75 64 56 39 40 37 25 24 18 16 16 16 14 16 16 26 21 24 39 48 56 48 35 37 35 32 36 33 17 14 12 10 9 7 6 6 6 6 6 5 5
95 95 65 56 55 43 38 36 34 25 22 22 13 13 12 16 16 17 24 19 30 37 47 56 44 37 40 40 46 42 28 17 14 12 10 9 7 7 7 7 7 6 5 5
99 100 97 87 53 42 41 26 27 32 22 19 21 14 18 15 22 24 25 26 33 42 50 51 38 36 42 48 50 38 23 17 13 12 10 9 8 7 8 8 6 6 5 4
80 95 96 91 69 53 44 40 37 34 28 20 18 21 20 18 28 34 32 31 32 38 42 42 32 40 42 51 44 34 20 16 13 12 10 9 8 8 9 8 7 6 6 5
67 66 86 75 79 70 56 50 40 35 26 17 16 19 19 21 22 40 37 28 33 31 29 30 36 42 45 46 37 26 19 15 13 12 10 9 9 10 9 8 7 6 5 4

GFSCGP_700_rhum_273.txt.gz
RH
14 11 9 9 15 20 21 20 19 21 24 24 26 22 19 20 22 26 36 37 30 26 23 22 21 22 22 23 24 21 26 36 48 53 80 98 88 82 77 97 92 92 84 71
19 15 11 8 14 20 25 27 22 25 23 23 24 24 23 23 24 36 43 41 37 33 29 27 26 26 27 23 18 18 31 46 30 97 67 96 82 80 84 80 59 50 43 10
12 16 14 11 7 18 20 24 22 27 26 27 23 35 31 32 38 35 39 43 42 42 38 34 34 32 25 17 15 14 16 19 32 45 63 71 57 80 70 18 11 9 5 4
18 13 15 14 9 9 18 20 20 22 26 31 35 33 39 35 30 35 38 32 39 43 44 42 35 26 19 16 14 13 14 15 16 17 17 16 15 14 10 7 4 2 1 1
17 14 12 12 12 8 13 19 20 22 29 35 44 36 40 38 48 40 29 29 37 50 47 39 28 22 17 17 16 16 16 17 16 14 11 9 7 4 2 1 1 1 1 1
25 18 14 13 12 9 16 18 22 35 39 61 31 45 30 32 28 21 28 30 46 50 47 34 27 18 17 18 17 16 14 12 8 5 3 2 2 1 1 1 2 2 2 2
31 21 20 28 21 15 22 27 63 59 64 33 34 56 38 30 23 21 19 21 39 50 44 35 25 15 18 20 17 14 8 3 2 2 2 2 2 2 2 2 2 2 2 2
33 28 16 18 31 17 24 26 41 35 38 30 46 49 41 30 26 23 23 33 42 47 37 36 13 9 11 13 10 5 3 3 3 2 2 2 2 2 2 2 2 2 2 2
33 32 21 18 20 24 25 38 20 28 33 37 41 43 41 29 29 28 24 34 46 42 40 39 36 20 8 6 5 4 3 3 3 3 3 3 3 3 2 2 2 2 2 3
33 37 28 26 28 28 21 14 35 29 38 34 29 32 32 34 25 28 28 26 39 47 45 47 45 40 22 6 5 4 4 4 4 4 3 3 3 3 3 3 3 3 3 3
36 38 32 29 32 31 32 35 29 25 27 29 25 24 25 28 25 22 17 20 23 35 46 46 47 47 36 9 6 5 5 4 4 4 4 4 4 4 3 3 3 3 3 3
35 36 37 33 33 31 34 33 26 27 28 29 28 24 20 20 19 22 21 19 25 35 38 48 50 48 43 12 6 6 6 5 5 4 4 4 4 4 4 4 3 3 3 4
46 40 39 34 34 34 33 36 36 30 28 31 34 25 23 21 18 30 25 24 28 34 42 50 56 54 48 18 8 7 6 6 5 5 5 5 5 4 4 4 4 3 4 4
50 43 36 36 32 33 32 32 37 38 40 34 34 29 24 22 21 25 30 28 28 33 42 50 54 53 52 26 9 8 7 7 6 6 6 6 6 5 5 4 4 4 4 4
58 50 44 36 31 31 31 28 29 34 37 41 35 36 30 24 20 17 19 26 31 36 44 48 49 53 54 28 11 9 9 8 7 6 6 6 6 6 5 4 4 4 4 4
70 66 54 44 37 33 32 30 27 25 25 31 37 36 32 29 31 27 23 24 24 32 36 41 53 58 58 32 18 12 10 9 7 7 7 7 7 6 5 4 4 4 4 4
70 81 81 64 46 37 44 33 30 29 29 26 33 32 34 32 30 30 28 25 19 26 32 36 47 54 60 38 26 14 12 10 9 8 8 8 8 7 6 4 4 4 4 5
71 88 98 95 59 65 37 35 33 31 27 26 28 27 25 23 23 27 26 24 21 22 28 40 49 59 58 44 31 15 15 12 11 10 9 9 8 7 6 5 5 5 5 5
61 74 95 97 64 48 42 37 33 33 31 30 28 29 26 25 26 26 21 22 23 20 21 28 48 59 54 47 28 20 18 15 14 11 10 10 9 8 6 6 5 5 5 6
38 52 84 97 95 65 38 39 37 36 35 32 31 29 28 26 27 22 22 23 27 28 29 38 55 62 52 48 27 23 19 18 16 13 11 10 9 8 7 6 6 6 6 6
98 92 98 90 96 75 51 41 37 41 32 21 20 20 21 20 15 16 18 23 26 20 22 46 62 60 52 40 27 26 21 22 20 14 12 11 10 8 7 6 6 6 6 6
92 97 100 93 92 88 52 44 39 25 22 29 26 25 24 22 23 21 18 19 20 24 33 48 61 60 55 40 33 30 25 27 24 15 13 11 10 8 7 6 7 7 6 6
92 94 97 92 62 55 62 53 41 37 34 32 23 29 27 26 22 21 21 21 15 26 28 47 54 55 50 36 37 28 30 33 26 16 13 12 10 8 7 7 8 7 6 6
87 96 97 94 63 85 70 53 51 44 40 39 38 31 23 25 22 20 21 22 21 30 27 47 55 55 43 39 39 36 39 38 29 16 13 12 10 8 8 8 8 7 6 6
75 95 88 81 64 77 75 66 54 45 41 38 38 40 36 26 22 25 24 25 25 30 28 48 53 56 52 41 38 39 40 44 29 16 13 12 9 8 8 9 8 7 6 6
31 39 98 62 73 87 70 74 63 54 47 40 37 35 42 24 23 21 26 31 32 32 33 50 53 56 49 41 41 42 48 45 24 16 13 11 9 9 10 10 8 7 7 6

GFSCGP_700_rhum_276.txt.gz
RH
13 19 16 15 16 18 19 19 19 22 36 32 48 57 35 36 27 26 29 32 49 58 51 34 24 22 22 22 23 24 24 32 61 91 74 91 77 98 90 82 73 81 76 61
23 18 15 16 15 19 20 19 19 25 30 30 45 58 31 28 28 27 28 33 40 40 31 26 24 23 23 23 24 24 17 22 34 45 70 85 85 99 95 88 91 74 52 36
15 16 21 19 16 17 16 19 20 27 45 37 47 61 63 31 35 32 38 42 36 30 27 27 29 28 26 27 25 17 14 15 28 30 39 87 74 83 66 62 78 52 9 4
22 18 17 17 18 14 13 16 20 24 44 36 39 28 48 40 32 32 31 29 27 24 24 28 28 29 31 28 19 14 13 14 16 16 20 25 37 24 15 12 9 4 1 1
21 20 20 18 18 17 14 13 18 22 36 35 54 51 31 49 36 26 28 27 23 25 32 35 37 34 31 22 16 13 14 16 16 16 16 15 14 12 7 3 1 1 1 1
24 25 21 20 18 19 17 15 18 23 30 31 35 42 33 43 42 56 24 23 21 21 30 39 38 35 26 19 14 15 17 18 16 14 11 8 4 2 2 1 2 2 2 2
27 27 28 19 23 20 18 18 21 30 29 32 31 34 33 24 43 42 21 20 19 24 34 38 39 32 25 17 14 15 15 14 11 6 3 2 2 2 2 2 2 2 2 2
22 21 24 26 25 19 18 21 22 29 27 27 26 29 30 30 39 36 48 32 25 24 32 39 39 30 22 12 15 16 14 10 4 2 2 2 2 2 2 2 2 2 2 2
23 25 23 23 24 24 19 20 22 20 20 21 23 27 31 33 33 38 40 31 26 31 40 41 38 32 7 9 16 13 8 4 3 3 3 3 2 2 2 2 2 2 2 3
29 29 29 26 28 23 21 19 21 22 26 24 19 22 26 33 36 45 33 21 23 29 38 42 43 29 14 8 7 5 4 3 3 3 3 3 3 3 3 3 3 3 3 3
35 34 32 31 29 22 24 24 21 23 24 25 21 18 20 25 38 32 26 26 23 24 27 42 45 37 36 26 9 4 4 4 4 4 3 3 3 3 3 3 3 3 3 3
45 39 38 33 28 25 22 23 23 26 26 23 19 18 17 20 28 31 21 22 26 25 26 34 46 42 43 39 17 5 4 4 4 4 4 4 4 4 4 4 3 3 3 4
70 52 45 37 32 35 33 29 25 25 24 22 26 21 21 18 30 32 28 27 26 27 35 45 50 43 47 43 22 6 5 5 5 5 5 5 5 4 4 4 4 4 4 4
73 73 49 38 25 26 32 32 31 31 32 30 22 19 21 21 20 19 21 27 30 28 34 44 40 42 50 46 34 8 7 6 6 6 5 5 5 5 5 4 4 4 4 4
73 78 63 54 42 33 30 32 32 33 33 33 30 23 19 25 20 21 24 28 28 32 39 38 35 45 50 51 45 14 8 8 7 6 6 6 6 6 6 5 4 4 4 4
75 86 88 82 59 46 38 32 31 30 32 32 33 31 28 30 26 23 26 17 25 30 34 38 44 50 51 52 49 21 11 10 8 7 7 7 7 7 6 5 4 4 4 5
73 83 94 78 55 46 42 41 31 29 29 29 30 31 33 40 31 27 30 26 23 20 29 36 43 47 53 57 53 24 15 12 10 8 8 8 8 7 7 6 5 5 5 5
84 83 90 88 75 77 39 36 37 34 30 30 31 30 31 40 36 30 28 28 32 26 26 34 47 52 60 61 56 31 22 14 11 9 8 8 8 8 8 6 6 5 5 5
32 76 77 85 67 60 40 35 33 30 30 31 30 33 32 30 33 34 30 30 27 24 23 27 37 54 64 63 58 41 31 18 13 10 9 9 9 9 8 7 6 5 6 6
48 69 68 66 82 69 44 44 42 41 36 33 33 35 35 31 34 35 24 20 25 30 26 24 30 54 66 66 60 47 35 20 14 12 11 10 10 10 9 7 6 6 6 6
98 92 92 74 71 58 57 50 48 41 34 32 34 36 36 36 36 30 28 22 22 26 29 24 28 47 59 64 64 49 35 23 17 15 13 12 11 10 9 8 6 6 6 6
50 96 94 84 70 63 49 58 59 63 50 51 39 38 32 32 31 31 29 25 26 23 26 31 31 46 60 72 66 52 36 26 19 19 15 13 12 10 9 8 7 7 7 6
74 96 96 96 77 53 73 91 67 57 56 46 37 37 36 37 34 28 29 32 29 26 25 37 41 50 73 74 64 53 35 26 22 22 17 14 12 11 9 8 7 7 7 6
72 84 100 100 63 95 79 85 85 66 56 50 45 38 37 34 31 32 26 24 29 29 28 31 39 50 68 74 63 53 39 30 27 27 19 15 12 11 9 8 8 8 7 6
72 75 69 77 70 78 98 92 91 76 71 58 48 43 40 38 39 36 28 27 26 28 28 30 38 46 61 73 61 54 40 36 33 32 22 15 13 11 9 8 8 8 7 7
72 62 66 41 44 68 69 93 92 75 70 66 52 49 44 40 41 33 32 30 27 29 26 29 41 52 65 73 60 53 36 34 34 34 25 16 13 11 9 9 9 8 7 7

GFSCGP_700_rhum_279.txt.gz
RH
19 15 12 12 12 12 11 14 20 21 24 34 35 37 55 45 81 88 77 48 47 57 49 60 54 48 29 22 19 20 21 21 43 37 98 58 98 82 73 99 95 83 81 76
17 18 13 11 12 11 12 14 16 18 22 29 29 36 64 44 58 74 75 51 48 39 44 51 48 32 22 19 20 21 21 22 21 69 37 97 75 76 89 87 94 88 81 72
16 14 14 12 12 13 13 13 16 17 30 32 28 34 56 70 77 74 70 74 59 40 40 39 37 25 23 23 23 23 24 19 14 35 25 46 89 95 83 81 78 60 46 25
15 15 14 16 15 14 14 13 15 18 27 28 28 29 42 58 64 57 38 44 41 38 29 25 22 23 24 25 25 24 21 14 11 16 21 25 46 69 68 63 18 13 8 2
16 18 17 14 14 14 14 12 13 15 19 28 29 30 34 46 58 56 43 47 35 26 23 21 23 24 24 26 25 24 18 12 10 11 13 16 19 17 16 12 9 3 1 1
20 16 19 16 15 15 14 15 14 13 14 23 36 36 31 36 43 48 57 51 27 21 19 19 23 25 27 25 24 22 16 11 10 12 15 16 15 11 8 3 1 1 1 1
21 20 18 23 20 18 15 18 16 15 16 18 23 31 31 26 34 42 48 60 26 19 18 17 18 23 26 25 24 20 14 11 12 14 12 10 7 3 2 2 2 2 2 2
16 16 17 18 20 15 14 17 18 20 16 14 14 21 22 25 28 34 42 57 35 23 20 20 22 30 27 26 24 21 13 12 13 12 8 3 2 2 2 2 2 2 2 2
20 18 14 17 19 20 15 15 15 15 13 14 13 15 16 21 25 32 40 53 64 31 21 20 23 29 28 26 27 19 11 12 13 9 3 2 2 2 2 2 2 2 2 2
25 24 22 21 21 18 19 14 16 16 24 22 16 15 16 19 20 27 38 46 61 55 26 25 28 30 32 31 28 10 9 12 8 4 2 2 2 2 2 2 2 2 3 3
46 33 28 25 24 21 17 18 16 16 17 25 22 15 13 14 23 27 33 42 58 38 26 27 29 32 34 37 21 6 6 6 4 3 2 3 3 3 3 3 3 3 3 3
70 61 36 28 25 24 22 16 16 20 18 18 20 19 14 18 17 29 32 38 52 51 36 24 32 35 42 40 21 13 6 4 3 3 3 3 3 3 3 3 3 3 3 3
72 60 39 31 28 27 26 22 18 18 18 19 24 22 18 20 21 28 34 35 52 68 60 32 37 38 45 44 32 31 15 3 3 4 4 4 4 4 4 4 4 4 4 4
83 82 63 37 25 23 26 26 25 21 23 25 22 20 18 18 21 24 28 37 53 52 50 36 37 38 48 46 41 38 20 4 4 4 4 4 4 4 4 4 4 4 4 4
95 85 71 60 45 37 34 32 25 24 23 25 25 22 20 18 23 25 27 37 54 55 52 34 38 37 50 48 48 42 21 5 5 5 5 5 5 5 5 5 5 4 4 4
88 93 81 76 69 62 53 46 34 26 22 22 24 25 24 21 19 23 30 44 55 62 43 46 39 37 54 48 51 45 36 8 6 6 6 6 6 6 6 6 5 5 4 4
88 79 60 79 68 57 53 44 38 30 25 24 23 24 25 26 26 36 43 20 24 46 34 39 38 37 44 44 50 49 45 18 7 7 7 6 6 6 6 6 6 5 5 5
70 77 71 66 68 89 59 43 36 31 29 27 26 26 25 26 28 39 48 26 28 29 34 56 54 46 43 43 49 54 51 30 12 10 8 7 7 7 7 7 6 5 5 5
58 63 74 70 53 56 48 41 34 28 27 28 29 26 26 27 28 34 44 45 31 32 32 32 35 48 51 50 54 57 53 42 22 15 10 8 7 8 8 8 7 6 6 6
48 53 68 64 59 61 43 45 42 43 39 36 42 37 26 27 29 29 36 42 54 36 40 50 47 44 50 50 56 54 55 53 33 22 13 9 8 8 9 8 7 6 6 6
45 50 57 66 68 49 38 37 40 58 71 64 41 41 39 32 29 30 29 36 37 36 30 31 42 37 36 53 60 58 56 57 41 28 15 10 9 10 10 9 8 7 7 7
41 58 95 63 56 57 37 43 43 86 95 69 57 52 48 45 44 38 39 46 38 35 28 24 30 34 39 43 63 64 61 61 47 33 17 12 11 11 10 10 8 8 7 7
57 53 62 96 91 52 83 97 99 99 96 82 61 50 42 41 47 51 49 52 60 41 33 26 29 31 34 36 46 68 71 65 51 37 20 16 13 12 11 10 9 8 7 7
54 55 64 77 53 78 91 94 100 97 100 88 67 52 44 40 34 32 30 52 35 50 37 35 32 33 38 33 46 78 77 69 52 37 23 19 16 13 12 11 9 8 8 8
68 67 61 63 64 66 70 75 90 97 95 90 87 69 54 54 42 36 35 46 36 34 67 37 34 34 37 49 55 79 80 69 54 38 25 23 19 14 12 11 10 8 8 8
75 72 67 59 50 62 63 72 80 81 73 77 94 93 69 66 47 42 38 36 45 32 33 39 44 44 48 52 63 82 82 69 56 37 29 27 23 15 13 12 10 9 9 8

GFSCGP_700_rhum_282.txt.gz
RH
21 20 15 12 12 12 10 11 13 15 21 24 30 40 50 49 62 88 92 88 75 65 46 43 54 50 26 48 44 38 38 33 24 21 25 54 87 89 99 86 80 89 82 76
20 18 16 12 11 11 11 11 11 11 15 24 30 31 43 62 50 84 89 92 88 74 56 51 56 54 35 41 32 22 18 17 18 17 30 34 93 78 59 75 77 79 88 87
16 15 14 15 14 12 11 11 11 11 12 22 28 30 34 62 68 80 86 87 96 92 44 41 57 58 30 35 23 17 18 18 19 20 17 16 75 28 61 49 85 84 83 72
16 14 13 13 13 12 11 11 11 11 11 31 33 30 38 57 62 53 79 84 90 97 67 49 53 51 37 28 20 17 19 20 19 16 13 16 18 27 34 83 81 73 42 13
18 16 14 13 14 13 13 13 13 13 12 14 27 27 27 42 58 52 67 78 83 88 53 46 47 39 35 21 19 21 22 22 19 15 11 11 12 15 24 37 29 16 8 2
19 18 15 16 16 13 13 13 13 13 13 16 16 24 32 30 44 54 62 70 74 79 50 32 34 27 23 19 19 22 23 20 18 15 11 9 11 12 13 12 10 5 1 1
21 19 17 16 17 17 15 14 15 18 18 17 13 14 26 24 28 42 37 47 52 68 50 25 22 20 17 20 23 24 21 20 18 13 10 11 13 13 10 6 3 1 1 2
18 17 16 17 17 17 17 16 18 23 22 16 12 12 13 22 25 31 37 41 55 62 41 25 22 19 17 20 23 23 22 22 19 13 11 12 11 9 4 2 1 2 2 2
20 18 16 14 16 16 16 16 14 16 17 18 14 11 10 12 20 24 34 47 45 44 46 35 27 21 18 18 23 23 24 23 21 12 10 11 8 3 2 2 2 2 2 2
46 40 25 18 17 15 17 18 17 15 23 25 16 14 12 11 12 16 19 33 42 43 45 37 29 24 20 20 24 24 26 26 20 11 11 10 4 2 2 2 2 2 2 2
58 51 40 33 20 20 18 18 18 17 18 24 22 17 13 13 13 15 16 27 37 45 42 31 28 26 24 32 33 30 32 28 17 9 9 6 2 2 2 2 2 2 3 3
66 76 64 45 32 26 22 21 18 19 19 18 20 19 14 14 17 20 19 35 41 45 44 36 35 31 26 29 32 34 34 30 11 8 6 3 2 2 3 3 3 3 3 3
66 63 56 39 34 32 26 23 22 20 21 20 24 23 16 13 14 18 22 30 34 42 48 40 45 43 33 33 37 41 38 26 7 4 4 2 2 3 3 3 3 3 3 4
74 85 75 60 46 41 42 34 26 23 26 26 22 17 17 17 16 16 19 27 37 52 46 42 49 52 44 32 37 44 41 20 16 6 3 3 3 3 3 3 4 4 4 4
72 89 86 77 68 58 55 60 52 51 43 28 24 22 19 18 19 20 18 32 40 60 56 53 45 49 35 28 33 44 44 29 30 10 3 3 3 4 4 4 4 4 4 4
74 81 75 68 71 76 63 55 52 53 54 38 32 22 22 22 21 19 22 31 45 43 46 51 43 52 40 29 30 40 46 38 35 11 4 4 4 4 4 4 5 5 5 5
75 84 76 74 57 50 68 52 52 46 43 41 36 29 19 20 22 26 24 30 30 65 60 54 37 24 27 30 31 46 50 44 38 10 4 4 4 4 5 5 5 5 5 5
66 65 59 67 64 78 42 50 45 42 38 36 37 36 28 25 23 23 29 40 44 40 56 53 45 42 43 42 37 54 55 50 42 24 6 5 5 5 6 6 6 6 6 6
54 61 63 61 63 52 47 42 42 32 38 47 54 43 38 35 30 30 29 37 42 43 51 51 50 59 58 49 44 59 58 55 46 40 12 8 7 6 6 6 6 7 6 6
48 52 60 64 60 62 40 39 39 41 46 74 76 70 56 48 40 36 33 34 60 74 56 54 60 50 54 42 44 48 58 58 52 48 24 16 12 8 7 7 7 7 7 7
47 48 76 66 65 52 45 43 41 42 54 92 93 75 70 69 70 44 40 37 42 82 59 37 40 35 36 47 51 52 62 61 56 53 35 22 18 10 8 8 8 8 8 7
51 47 56 86 93 72 45 59 84 98 95 94 97 92 65 58 66 51 54 51 51 67 58 52 38 33 30 40 47 46 54 65 61 56 36 27 22 13 9 8 9 9 9 8
79 60 61 90 77 92 94 89 99 96 98 98 88 94 84 81 73 68 58 52 58 72 69 61 45 36 35 36 38 44 49 65 66 60 44 34 26 15 10 10 10 10 9 8
58 60 61 61 51 60 72 92 92 94 94 97 91 78 96 93 82 77 66 58 65 80 79 69 71 54 43 38 38 52 50 58 70 64 52 41 32 20 12 11 11 10 10 9
78 77 75 68 56 69 63 68 76 87 89 92 91 76 82 94 81 78 72 75 67 70 81 87 83 88 64 48 44 48 52 48 72 67 56 48 37 25 15 13 12 11 11 10
90 80 83 67 71 70 70 66 68 68 68 72 74 73 80 94 88 81 77 71 71 61 67 82 89 89 91 73 47 45 52 57 69 73 58 52 44 30 19 16 13 13 11 9

GFSCGP_700_rhum_285.txt.gz
RH
14 18 17 9 10 10 13 14 13 17 21 21 24 30 29 38 37 37 46 56 65 67 63 62 43 31 28 43 49 54 51 39 40 38 36 25 20 26 46 86 94 95 76 80
20 23 20 16 14 13 13 11 12 11 11 14 16 27 36 36 45 40 47 45 54 70 65 57 42 32 32 47 60 44 42 30 31 23 18 17 17 33 28 75 72 53 62 64
20 15 16 17 16 13 12 12 12 11 10 11 12 23 39 41 48 49 55 65 61 59 62 51 41 35 40 47 54 45 40 25 17 16 16 16 14 14 14 69 29 51 61 69
19 17 17 15 15 15 15 12 12 12 12 12 15 39 45 56 57 59 58 72 91 78 69 62 55 47 49 49 50 44 35 19 17 17 16 14 12 11 16 25 25 38 64 72
17 17 17 15 14 13 13 13 13 12 13 14 15 35 34 53 70 57 60 73 91 89 72 54 50 51 62 58 53 45 32 18 17 18 16 13 13 12 13 15 15 26 38 30
23 20 18 18 16 14 14 14 13 13 13 19 14 17 31 41 33 57 54 55 65 80 81 66 46 48 44 52 46 42 30 19 19 18 15 14 14 11 9 9 11 14 11 7
22 20 20 19 18 17 17 16 19 20 21 23 13 15 14 23 34 42 44 45 47 53 58 42 36 44 34 34 33 34 24 19 18 19 18 16 13 9 8 8 10 10 5 1
24 24 22 13 17 18 17 16 22 30 28 18 14 16 14 13 16 22 26 34 44 44 55 57 42 38 34 34 26 27 20 21 20 21 19 17 12 10 9 10 8 4 1 1
36 29 20 19 19 16 17 17 17 18 17 23 18 18 13 12 13 16 24 41 40 40 40 40 34 35 36 30 29 25 22 21 21 22 20 18 13 9 10 8 4 2 2 2
52 56 34 28 26 19 19 16 18 18 31 34 19 17 16 14 12 11 21 39 40 36 38 34 34 40 36 25 26 20 22 24 24 24 23 20 12 10 9 5 2 2 2 2
58 62 56 32 30 33 29 21 18 18 21 36 31 20 15 12 14 14 16 23 20 36 29 32 36 35 36 32 28 24 27 25 23 24 25 21 11 10 7 2 2 2 2 2
61 65 58 43 28 32 41 38 32 25 23 20 21 23 20 19 18 13 18 17 22 34 37 39 39 34 34 29 30 29 29 28 29 30 26 19 10 9 4 2 2 2 2 2
59 68 69 44 33 28 34 33 45 48 42 31 34 27 18 16 20 19 19 15 14 30 31 44 45 41 38 35 32 31 28 36 38 31 30 13 9 6 2 2 2 2 2 3
74 68 90 93 86 79 72 55 50 61 62 56 50 37 26 22 19 16 16 20 27 29 46 45 46 46 38 34 38 31 29 38 37 38 28 10 6 4 2 3 3 3 3 3
70 75 69 65 73 72 65 63 59 60 58 63 60 55 44 34 27 22 21 16 21 43 46 68 63 50 45 40 43 45 45 37 41 42 22 9 5 3 3 3 3 3 3 4
52 72 76 61 66 73 60 41 32 44 50 54 52 51 44 42 34 26 23 24 30 53 51 55 51 59 54 48 45 51 45 42 42 42 20 14 5 3 4 4 4 4 4 4
63 42 54 63 52 53 42 12 12 18 47 41 48 53 56 52 47 40 31 32 32 42 41 62 59 78 69 61 55 48 37 36 44 42 27 23 5 4 4 4 4 4 4 4
67 72 68 68 62 84 14 18 18 22 28 47 51 65 78 65 49 41 36 38 52 39 51 47 52 47 44 48 61 51 42 43 49 43 33 28 5 4 4 5 5 5 5 5
55 67 71 69 61 45 26 19 34 40 32 45 53 60 60 60 47 46 38 35 42 50 51 51 57 42 38 43 50 44 43 44 51 47 40 27 5 5 5 6 6 6 6 6
57 66 67 66 70 76 44 32 45 46 35 64 68 62 58 64 52 43 38 37 39 49 40 49 57 71 52 50 59 57 49 44 47 52 46 24 8 6 7 7 6 6 6 6
65 57 73 94 86 72 59 55 40 56 92 97 88 82 86 78 76 49 58 51 48 44 50 50 51 55 60 49 55 58 61 58 55 57 50 29 13 9 9 8 8 7 7 7
61 72 64 67 85 85 95 75 82 96 97 96 98 93 96 95 82 71 75 56 52 53 70 49 56 59 58 53 48 42 45 57 60 62 55 39 20 13 12 10 8 8 8 8
94 95 94 97 76 70 85 91 95 98 88 90 96 86 79 83 91 89 85 78 55 70 96 99 88 73 62 65 54 37 45 54 57 64 62 44 28 17 16 12 10 8 8 8
50 58 67 61 62 73 74 71 86 93 94 98 92 95 90 70 85 91 92 89 70 82 84 99 98 96 69 52 42 45 53 54 54 60 66 54 40 27 22 16 11 9 9 9
61 64 65 44 68 66 57 59 65 83 88 91 88 81 80 79 68 92 96 95 94 94 100 100 98 99 81 71 49 43 42 61 62 61 68 66 51 41 30 20 14 11 10 10
65 66 71 74 56 64 64 57 48 56 65 70 72 70 68 71 73 68 92 98 96 89 95 96 99 99 99 91 78 56 52 54 59 69 71 70 61 54 37 27 20 14 11 11